Home   Weather   Berlevåg   Past weeks
Flag for Norway

Past Weather in Berlevåg, Norway — Yesterday and Last 2 Weeks

Now
39 °F

Chilly.


Feels Like: 36 °F
Forecast: 41 / 35 °F
Wind: 5 mph from North

Location: Berlevag

Current Time: May 25, 2019 at 3:10:11 pm

Latest Report: May 25, 2019 at 2:00 pm


Visibility: N/A

Pressure: 29.81 "Hg

Humidity: 68%

Dew Point: 29 °F

Location of BerlevågLocation

Past Weather in Berlevåg — Graph

°F

Berlevåg Temperature Yesterday

Maximum temperature yesterday: 41 °F (at 3:00 pm)
Minimum temperature yesterday: 34 °F (at 12:00 am)
Average temperature yesterday: 37 °F

High & Low Weather Summary for the Past Weeks

 TemperatureHumidityPressure
High51 °F (May 10, 2:00 pm)98% (May 12, 11:00 pm)30.34 "Hg (May 12, 11:00 pm)
Low33 °F (May 20, 1:00 am)47% (May 10, 2:00 pm)29.74 "Hg (May 13, 1:00 am)
Average39 °F79%30.13 "Hg
* Reported May 10 1:00 pm — May 25 1:00 pm, Berlevåg. Weather by CustomWeather, © 2019

Note: Actual official high and low records may vary slightly from our data, if they occured in-between our weather recording intervals... More about our weather records

Advertising

Berlevåg Weather History for the Previous 24 Hours

Scroll right to see more
 ConditionsComfort  
Time TempWeatherWind HumidityBarometerVisibility
1:00 pm
Sat, May 25
41 °FQuite cool.5 mph64%29.81 "HgN/A
12:00 pm37 °FChilly.6 mph78%29.81 "HgN/A
11:00 am37 °FChilly.6 mph81%29.80 "HgN/A
10:00 am38 °FChilly.6 mph75%29.80 "HgN/A
9:00 am38 °FChilly.6 mph70%29.79 "HgN/A
8:00 am36 °FChilly.5 mph79%29.79 "HgN/A
7:00 am35 °FChilly.8 mph87%29.79 "HgN/A
6:00 am35 °FChilly.5 mph85%29.80 "HgN/A
5:00 am37 °FChilly.6 mph75%29.79 "HgN/A
4:00 am37 °FChilly.6 mph65%29.80 "HgN/A
3:00 am36 °FChilly.6 mph68%29.80 "HgN/A
2:00 am36 °FChilly.3 mph73%29.81 "HgN/A
1:00 am36 °FChilly.3 mph72%29.82 "HgN/A
12:00 am35 °FChilly.2 mph74%29.83 "HgN/A
11:00 pm
Fri, May 24
36 °FChilly.3 mph68%29.83 "HgN/A
10:00 pm37 °FChilly.3 mph68%29.83 "HgN/A
9:00 pm38 °FChilly.5 mph68%29.84 "HgN/A
8:00 pm40 °FChilly.5 mph68%29.85 "HgN/A
7:00 pm40 °FQuite cool.5 mph64%29.85 "HgN/A
6:00 pm40 °FQuite cool.6 mph62%29.87 "HgN/A
5:00 pm41 °FQuite cool.6 mph60%29.89 "HgN/A
4:00 pm40 °FChilly.6 mph60%29.90 "HgN/A
3:00 pm41 °FQuite cool.5 mph55%29.92 "HgN/A
Weather by CustomWeather, © 2019

See weather overview